owner,sensor,date,latitude,longitude,vertical_datum,mass_concentration_of_oxygen_in_sea_water,qcFlag 
SCCF RECON,ioos:station:SCCF:13:1,2008-11-01T00:00:00Z,26.5255,-82.0032,2.37,7.09,1111122 
SCCF RECON,ioos:station:SCCF:13:1,2008-11-01T01:00:00Z,26.5255,-82.0032,2.353,6.94,1111122 
SCCF RECON,ioos:station:SCCF:13:1,2008-11-01T02:00:00Z,26.5255,-82.0032,2.372,6.8,1111122 
SCCF RECON,ioos:station:SCCF:13:1,2008-11-01T03:00:00Z,26.5255,-82.0032,2.42,6.79,1111122 
SCCF RECON,ioos:station:SCCF:13:1,2008-11-01T04:00:00Z,26.5255,-82.0032,2.48,6.84,1111122 
SCCF RECON,ioos:station:SCCF:13:1,2008-11-01T05:00:00Z,26.5255,-82.0032,2.54,6.86,1111122 
SCCF RECON,ioos:station:SCCF:13:1,2008-11-01T06:00:00Z,26.5255,-82.0032,2.58,6.86,1111122 
SCCF RECON,ioos:station:SCCF:13:1,2008-11-01T07:00:00Z,26.5255,-82.0032,2.58,6.79,1111122 
SCCF RECON,ioos:station:SCCF:13:1,2008-11-01T08:00:00Z,26.5255,-82.0032,2.51,6.72,1111122 
SCCF RECON,ioos:station:SCCF:13:1,2008-11-01T09:00:00Z,26.5255,-82.0032,2.42,6.63,1111122 
SCCF RECON,ioos:station:SCCF:13:1,2008-11-01T10:00:00Z,26.5255,-82.0032,2.32,6.78,1111122 
SCCF RECON,ioos:station:SCCF:13:1,2008-11-01T11:00:00Z,26.5255,-82.0032,2.24,7.14,1111122 
SCCF RECON,ioos:station:SCCF:13:1,2008-11-01T12:00:00Z,26.5255,-82.0032,2.163,7.15,1111122 
SCCF RECON,ioos:station:SCCF:13:1,2008-11-01T13:00:00Z,26.5255,-82.0032,2.08,7.26,1111122 
SCCF RECON,ioos:station:SCCF:13:1,2008-11-01T14:00:00Z,26.5255,-82.0032,2.01,7.34,1111122 
SCCF RECON,ioos:station:SCCF:13:1,2008-11-01T15:00:00Z,26.5255,-82.0032,1.969,7.49,1111122 
SCCF RECON,ioos:station:SCCF:13:1,2008-11-01T16:00:00Z,26.5255,-82.0032,2.017,7.63,1111122 
SCCF RECON,ioos:station:SCCF:13:1,2008-11-01T17:00:00Z,26.5255,-82.0032,2.13,7.7,1111122 
SCCF RECON,ioos:station:SCCF:13:1,2008-11-01T18:00:00Z,26.5255,-82.0032,2.201,7.63,1111122 
SCCF RECON,ioos:station:SCCF:13:1,2008-11-01T19:00:00Z,26.5255,-82.0032,2.253,7.6,1111122 
SCCF RECON,ioos:station:SCCF:13:1,2008-11-01T20:00:00Z,26.5255,-82.0032,2.31,7.38,1111122 
SCCF RECON,ioos:station:SCCF:13:1,2008-11-01T21:00:00Z,26.5255,-82.0032,2.353,7.41,1111122 
SCCF RECON,ioos:station:SCCF:13:1,2008-11-01T22:00:00Z,26.5255,-82.0032,2.38,7.19,1111122 
SCCF RECON,ioos:station:SCCF:13:1,2008-11-01T23:00:00Z,26.5255,-82.0032,2.4,7.05,1111122 
SCCF RECON,ioos:station:SCCF:13:1,2008-11-02T00:00:00Z,26.5255,-82.0032,2.4,6.96,1111122 
SCCF RECON,ioos:station:SCCF:13:1,2008-11-02T01:00:00Z,26.5255,-82.0032,2.41,7.0,1111122 
SCCF RECON,ioos:station:SCCF:13:1,2008-11-02T02:00:00Z,26.5255,-82.0032,2.45,6.98,1111122 
SCCF RECON,ioos:station:SCCF:13:1,2008-11-02T03:00:00Z,26.5255,-82.0032,2.51,6.91,1111122 
SCCF RECON,ioos:station:SCCF:13:1,2008-11-02T04:00:00Z,26.5255,-82.0032,2.57,6.8,1111122 
SCCF RECON,ioos:station:SCCF:13:1,2008-11-02T05:00:00Z,26.5255,-82.0032,2.641,6.7,1111122 
SCCF RECON,ioos:station:SCCF:13:1,2008-11-02T06:00:00Z,26.5255,-82.0032,2.68,6.55,1111122 
SCCF RECON,ioos:station:SCCF:13:1,2008-11-02T07:00:00Z,26.5255,-82.0032,2.7,6.47,1111122 
SCCF RECON,ioos:station:SCCF:13:1,2008-11-02T08:00:00Z,26.5255,-82.0032,2.71,6.46,1111122 
SCCF RECON,ioos:station:SCCF:13:1,2008-11-02T09:00:00Z,26.5255,-82.0032,2.656,6.37,1111122 
SCCF RECON,ioos:station:SCCF:13:1,2008-11-02T10:00:00Z,26.5255,-82.0032,2.55,6.35,1111122 
SCCF RECON,ioos:station:SCCF:13:1,2008-11-02T11:00:00Z,26.5255,-82.0032,2.46,6.39,1111122 
SCCF RECON,ioos:station:SCCF:13:1,2008-11-02T12:00:00Z,26.5255,-82.0032,2.38,6.79,1111122 
SCCF RECON,ioos:station:SCCF:13:1,2008-11-02T13:00:00Z,26.5255,-82.0032,2.3,6.78,1111122 
SCCF RECON,ioos:station:SCCF:13:1,2008-11-02T14:00:00Z,26.5255,-82.0032,2.21,6.98,1111122 
SCCF RECON,ioos:station:SCCF:13:1,2008-11-02T15:00:00Z,26.5255,-82.0032,2.15,7.11,1111122 
SCCF RECON,ioos:station:SCCF:13:1,2008-11-02T16:00:00Z,26.5255,-82.0032,2.145,7.27,1111122 
SCCF RECON,ioos:station:SCCF:13:1,2008-11-02T17:00:00Z,26.5255,-82.0032,2.224,7.39,1111122 
SCCF RECON,ioos:station:SCCF:13:1,2008-11-02T18:00:00Z,26.5255,-82.0032,2.3,7.42,1111122 
SCCF RECON,ioos:station:SCCF:13:1,2008-11-02T19:00:00Z,26.5255,-82.0032,2.36,7.56,1111122 
SCCF RECON,ioos:station:SCCF:13:1,2008-11-02T20:00:00Z,26.5255,-82.0032,2.412,7.11,1111122 
SCCF RECON,ioos:station:SCCF:13:1,2008-11-02T21:00:00Z,26.5255,-82.0032,2.43,6.88,1111122 
SCCF RECON,ioos:station:SCCF:13:1,2008-11-02T22:00:00Z,26.5255,-82.0032,2.454,7.05,1111122 
SCCF RECON,ioos:station:SCCF:13:1,2008-11-02T23:00:00Z,26.5255,-82.0032,2.48,6.85,1111122 
SCCF RECON,ioos:station:SCCF:13:1,2008-11-03T00:00:00Z,26.5255,-82.0032,2.48,6.8,1111122 
SCCF RECON,ioos:station:SCCF:13:1,2008-11-03T01:00:00Z,26.5255,-82.0032,2.47,6.73,1111122 
SCCF RECON,ioos:station:SCCF:13:1,2008-11-03T02:00:00Z,26.5255,-82.0032,2.47,6.61,1111122 
SCCF RECON,ioos:station:SCCF:13:1,2008-11-03T03:00:00Z,26.5255,-82.0032,2.49,6.4,1111122 
SCCF RECON,ioos:station:SCCF:13:1,2008-11-03T04:00:00Z,26.5255,-82.0032,2.5,6.43,1111122 
SCCF RECON,ioos:station:SCCF:13:1,2008-11-03T05:00:00Z,26.5255,-82.0032,2.53,6.46,1111122 
SCCF RECON,ioos:station:SCCF:13:1,2008-11-03T06:00:00Z,26.5255,-82.0032,2.58,6.45,1111122 
SCCF RECON,ioos:station:SCCF:13:1,2008-11-03T07:00:00Z,26.5255,-82.0032,2.62,6.43,1111122 
SCCF RECON,ioos:station:SCCF:13:1,2008-11-03T08:00:00Z,26.5255,-82.0032,2.635,6.43,1111122 
SCCF RECON,ioos:station:SCCF:13:1,2008-11-03T09:00:00Z,26.5255,-82.0032,2.61,6.35,1111122 
SCCF RECON,ioos:station:SCCF:13:1,2008-11-03T10:00:00Z,26.5255,-82.0032,2.54,6.33,1111122 
SCCF RECON,ioos:station:SCCF:13:1,2008-11-03T11:00:00Z,26.5255,-82.0032,2.44,6.23,1111122 
SCCF RECON,ioos:station:SCCF:13:1,2008-11-03T12:00:00Z,26.5255,-82.0032,2.357,6.61,1111122 
SCCF RECON,ioos:station:SCCF:13:1,2008-11-03T13:00:00Z,26.5255,-82.0032,2.28,6.71,1111122 
SCCF RECON,ioos:station:SCCF:13:1,2008-11-03T14:00:00Z,26.5255,-82.0032,2.2,6.92,1111122 
SCCF RECON,ioos:station:SCCF:13:1,2008-11-03T15:00:00Z,26.5255,-82.0032,2.131,7.05,1111122 
SCCF RECON,ioos:station:SCCF:13:1,2008-11-03T16:00:00Z,26.5255,-82.0032,2.09,7.22,1111122 
SCCF RECON,ioos:station:SCCF:13:1,2008-11-03T17:00:00Z,26.5255,-82.0032,2.111,7.4,1111122 
SCCF RECON,ioos:station:SCCF:13:1,2008-11-03T18:00:00Z,26.5255,-82.0032,2.18,7.6,1111122 
SCCF RECON,ioos:station:SCCF:13:1,2008-11-03T19:00:00Z,26.5255,-82.0032,2.25,7.56,1111122 
SCCF RECON,ioos:station:SCCF:13:1,2008-11-03T20:00:00Z,26.5255,-82.0032,2.309,7.55,1111122 
SCCF RECON,ioos:station:SCCF:13:1,2008-11-03T21:00:00Z,26.5255,-82.0032,2.36,6.81,1111122 
SCCF RECON,ioos:station:SCCF:13:1,2008-11-03T22:00:00Z,26.5255,-82.0032,2.395,6.88,1111122 
SCCF RECON,ioos:station:SCCF:13:1,2008-11-03T23:00:00Z,26.5255,-82.0032,2.427,7.01,1111122 
SCCF RECON,ioos:station:SCCF:13:1,2008-11-04T00:00:00Z,26.5255,-82.0032,2.44,6.81,1111122 
SCCF RECON,ioos:station:SCCF:13:1,2008-11-04T01:00:00Z,26.5255,-82.0032,2.45,6.77,1111122 
SCCF RECON,ioos:station:SCCF:13:1,2008-11-04T02:00:00Z,26.5255,-82.0032,2.45,6.7,1111122 
SCCF RECON,ioos:station:SCCF:13:1,2008-11-04T03:00:00Z,26.5255,-82.0032,2.45,6.61,1111122 
SCCF RECON,ioos:station:SCCF:13:1,2008-11-04T04:00:00Z,26.5255,-82.0032,2.46,6.44,1111122 
SCCF RECON,ioos:station:SCCF:13:1,2008-11-04T05:00:00Z,26.5255,-82.0032,2.49,6.38,1111122 
SCCF RECON,ioos:station:SCCF:13:1,2008-11-04T06:00:00Z,26.5255,-82.0032,2.502,6.37,1111122 
SCCF RECON,ioos:station:SCCF:13:1,2008-11-04T07:00:00Z,26.5255,-82.0032,2.52,6.31,1111122 
SCCF RECON,ioos:station:SCCF:13:1,2008-11-04T08:00:00Z,26.5255,-82.0032,2.53,6.3,1111122 
SCCF RECON,ioos:station:SCCF:13:1,2008-11-04T09:00:00Z,26.5255,-82.0032,2.522,6.19,1111122 
SCCF RECON,ioos:station:SCCF:13:1,2008-11-04T10:00:00Z,26.5255,-82.0032,2.51,6.23,1111122 
SCCF RECON,ioos:station:SCCF:13:1,2008-11-04T11:00:00Z,26.5255,-82.0032,2.436,6.08,1111122 
SCCF RECON,ioos:station:SCCF:13:1,2008-11-04T12:00:00Z,26.5255,-82.0032,2.36,5.95,1111122 
SCCF RECON,ioos:station:SCCF:13:1,2008-11-04T13:00:00Z,26.5255,-82.0032,2.28,6.45,1111122 
SCCF RECON,ioos:station:SCCF:13:1,2008-11-04T14:00:00Z,26.5255,-82.0032,2.222,6.87,1111122 
SCCF RECON,ioos:station:SCCF:13:1,2008-11-04T15:00:00Z,26.5255,-82.0032,2.16,7.05,1111122 
SCCF RECON,ioos:station:SCCF:13:1,2008-11-04T16:00:00Z,26.5255,-82.0032,2.1,7.19,1111122 
SCCF RECON,ioos:station:SCCF:13:1,2008-11-04T17:00:00Z,26.5255,-82.0032,2.07,7.43,1111122 
SCCF RECON,ioos:station:SCCF:13:1,2008-11-04T18:00:00Z,26.5255,-82.0032,2.07,7.63,1111122 
SCCF RECON,ioos:station:SCCF:13:1,2008-11-04T19:00:00Z,26.5255,-82.0032,2.12,7.74,1111122 
SCCF RECON,ioos:station:SCCF:13:1,2008-11-04T20:00:00Z,26.5255,-82.0032,2.18,7.7,1111122 
SCCF RECON,ioos:station:SCCF:13:1,2008-11-04T21:00:00Z,26.5255,-82.0032,2.24,7.33,1111122 
SCCF RECON,ioos:station:SCCF:13:1,2008-11-04T22:00:00Z,26.5255,-82.0032,2.3,6.88,1111122 
SCCF RECON,ioos:station:SCCF:13:1,2008-11-04T23:00:00Z,26.5255,-82.0032,2.364,6.62,1111122 
SCCF RECON,ioos:station:SCCF:13:1,2008-11-05T00:00:00Z,26.5255,-82.0032,2.4,6.67,1111122 
SCCF RECON,ioos:station:SCCF:13:1,2008-11-05T01:00:00Z,26.5255,-82.0032,2.42,6.64,1111122 
SCCF RECON,ioos:station:SCCF:13:1,2008-11-05T02:00:00Z,26.5255,-82.0032,2.39,6.5,1111122 
SCCF RECON,ioos:station:SCCF:13:1,2008-11-05T03:00:00Z,26.5255,-82.0032,2.39,6.43,1111122 
SCCF RECON,ioos:station:SCCF:13:1,2008-11-05T04:00:00Z,26.5255,-82.0032,2.4,6.12,1111122 
SCCF RECON,ioos:station:SCCF:13:1,2008-11-05T05:00:00Z,26.5255,-82.0032,2.42,6.13,1111122 
SCCF RECON,ioos:station:SCCF:13:1,2008-11-05T06:00:00Z,26.5255,-82.0032,2.44,6.12,1111122 
SCCF RECON,ioos:station:SCCF:13:1,2008-11-05T07:00:00Z,26.5255,-82.0032,2.46,6.27,1111122 
SCCF RECON,ioos:station:SCCF:13:1,2008-11-05T08:00:00Z,26.5255,-82.0032,2.5,6.16,1111122 
SCCF RECON,ioos:station:SCCF:13:1,2008-11-05T09:00:00Z,26.5255,-82.0032,2.53,6.2,1111122 
SCCF RECON,ioos:station:SCCF:13:1,2008-11-05T10:00:00Z,26.5255,-82.0032,2.54,6.19,1111122 
SCCF RECON,ioos:station:SCCF:13:1,2008-11-05T11:00:00Z,26.5255,-82.0032,2.53,6.06,1111122 
SCCF RECON,ioos:station:SCCF:13:1,2008-11-05T12:00:00Z,26.5255,-82.0032,2.475,5.89,1111122 
SCCF RECON,ioos:station:SCCF:13:1,2008-11-05T13:00:00Z,26.5255,-82.0032,2.4,5.96,1111122 
SCCF RECON,ioos:station:SCCF:13:1,2008-11-05T14:00:00Z,26.5255,-82.0032,2.329,6.39,1111122 
SCCF RECON,ioos:station:SCCF:13:1,2008-11-05T15:00:00Z,26.5255,-82.0032,2.267,6.82,1111122 
SCCF RECON,ioos:station:SCCF:13:1,2008-11-05T16:00:00Z,26.5255,-82.0032,2.2,7.12,1111122 
SCCF RECON,ioos:station:SCCF:13:1,2008-11-05T17:00:00Z,26.5255,-82.0032,2.132,7.58,1111122 
SCCF RECON,ioos:station:SCCF:13:1,2008-11-05T18:00:00Z,26.5255,-82.0032,2.11,7.5,1111122 
SCCF RECON,ioos:station:SCCF:13:1,2008-11-05T19:00:00Z,26.5255,-82.0032,2.115,7.78,1111122 
SCCF RECON,ioos:station:SCCF:13:1,2008-11-05T20:00:00Z,26.5255,-82.0032,2.18,8.22,1111122 
SCCF RECON,ioos:station:SCCF:13:1,2008-11-05T21:00:00Z,26.5255,-82.0032,2.222,8.03,1111122 
SCCF RECON,ioos:station:SCCF:13:1,2008-11-05T22:00:00Z,26.5255,-82.0032,2.28,7.49,1111122 
SCCF RECON,ioos:station:SCCF:13:1,2008-11-05T23:00:00Z,26.5255,-82.0032,2.33,7.18,1111122 
SCCF RECON,ioos:station:SCCF:13:1,2008-11-06T00:00:00Z,26.5255,-82.0032,2.386,6.68,1111122 
SCCF RECON,ioos:station:SCCF:13:1,2008-11-06T01:00:00Z,26.5255,-82.0032,2.43,6.69,1111122 
SCCF RECON,ioos:station:SCCF:13:1,2008-11-06T02:00:00Z,26.5255,-82.0032,2.446,6.54,1111122 
SCCF RECON,ioos:station:SCCF:13:1,2008-11-06T03:00:00Z,26.5255,-82.0032,2.45,6.55,1111122 
SCCF RECON,ioos:station:SCCF:13:1,2008-11-06T04:00:00Z,26.5255,-82.0032,2.42,6.3,1111122 
SCCF RECON,ioos:station:SCCF:13:1,2008-11-06T05:00:00Z,26.5255,-82.0032,2.4,6.23,1111122 
SCCF RECON,ioos:station:SCCF:13:1,2008-11-06T06:00:00Z,26.5255,-82.0032,2.38,6.22,1111122 
SCCF RECON,ioos:station:SCCF:13:1,2008-11-06T07:00:00Z,26.5255,-82.0032,2.39,6.31,1111122 
SCCF RECON,ioos:station:SCCF:13:1,2008-11-06T08:00:00Z,26.5255,-82.0032,2.43,5.71,1111122 
SCCF RECON,ioos:station:SCCF:13:1,2008-11-06T09:00:00Z,26.5255,-82.0032,2.489,5.86,1111122 
SCCF RECON,ioos:station:SCCF:13:1,2008-11-06T10:00:00Z,26.5255,-82.0032,2.52,6.08,1111122 
SCCF RECON,ioos:station:SCCF:13:1,2008-11-06T11:00:00Z,26.5255,-82.0032,2.53,6.01,1111122 
SCCF RECON,ioos:station:SCCF:13:1,2008-11-06T12:00:00Z,26.5255,-82.0032,2.55,5.93,1111122 
SCCF RECON,ioos:station:SCCF:13:1,2008-11-06T13:00:00Z,26.5255,-82.0032,2.54,5.88,1111122 
SCCF RECON,ioos:station:SCCF:13:1,2008-11-06T14:00:00Z,26.5255,-82.0032,2.48,5.88,1111122 
SCCF RECON,ioos:station:SCCF:13:1,2008-11-06T15:00:00Z,26.5255,-82.0032,2.372,6.15,1111122 
SCCF RECON,ioos:station:SCCF:13:1,2008-11-06T16:00:00Z,26.5255,-82.0032,2.3,7.31,1111122 
SCCF RECON,ioos:station:SCCF:13:1,2008-11-06T17:00:00Z,26.5255,-82.0032,2.251,7.49,1111122 
SCCF RECON,ioos:station:SCCF:13:1,2008-11-06T18:00:00Z,26.5255,-82.0032,2.2,7.92,1111122 
SCCF RECON,ioos:station:SCCF:13:1,2008-11-06T19:00:00Z,26.5255,-82.0032,2.17,8.28,1111122 
SCCF RECON,ioos:station:SCCF:13:1,2008-11-06T20:00:00Z,26.5255,-82.0032,2.16,8.51,1111122 
SCCF RECON,ioos:station:SCCF:13:1,2008-11-06T21:00:00Z,26.5255,-82.0032,2.24,8.63,1111122 
SCCF RECON,ioos:station:SCCF:13:1,2008-11-06T22:00:00Z,26.5255,-82.0032,2.32,8.02,1111122 
SCCF RECON,ioos:station:SCCF:13:1,2008-11-06T23:00:00Z,26.5255,-82.0032,2.38,7.31,1111122 
SCCF RECON,ioos:station:SCCF:13:1,2008-11-07T00:00:00Z,26.5255,-82.0032,2.43,6.66,1111122 
SCCF RECON,ioos:station:SCCF:13:1,2008-11-07T01:00:00Z,26.5255,-82.0032,2.47,6.62,1111122 
SCCF RECON,ioos:station:SCCF:13:1,2008-11-07T02:00:00Z,26.5255,-82.0032,2.497,6.66,1111122 
SCCF RECON,ioos:station:SCCF:13:1,2008-11-07T03:00:00Z,26.5255,-82.0032,2.5,6.56,1111122 
SCCF RECON,ioos:station:SCCF:13:1,2008-11-07T04:00:00Z,26.5255,-82.0032,2.45,6.46,1111122 
SCCF RECON,ioos:station:SCCF:13:1,2008-11-07T05:00:00Z,26.5255,-82.0032,2.4,6.44,1111122 
SCCF RECON,ioos:station:SCCF:13:1,2008-11-07T06:00:00Z,26.5255,-82.0032,2.343,6.32,1111122 
SCCF RECON,ioos:station:SCCF:13:1,2008-11-07T07:00:00Z,26.5255,-82.0032,2.29,6.7,1111122 
SCCF RECON,ioos:station:SCCF:13:1,2008-11-07T08:00:00Z,26.5255,-82.0032,2.31,7.33,1111122 
SCCF RECON,ioos:station:SCCF:13:1,2008-11-07T09:00:00Z,26.5255,-82.0032,2.36,7.13,1111122 
SCCF RECON,ioos:station:SCCF:13:1,2008-11-07T10:00:00Z,26.5255,-82.0032,2.41,6.24,1111122 
SCCF RECON,ioos:station:SCCF:13:1,2008-11-07T11:00:00Z,26.5255,-82.0032,2.46,6.01,1111122 
SCCF RECON,ioos:station:SCCF:13:1,2008-11-07T12:00:00Z,26.5255,-82.0032,2.5,6.06,1111122 
SCCF RECON,ioos:station:SCCF:13:1,2008-11-07T13:00:00Z,26.5255,-82.0032,2.51,5.97,1111122 
SCCF RECON,ioos:station:SCCF:13:1,2008-11-07T14:00:00Z,26.5255,-82.0032,2.482,5.98,1111122 
SCCF RECON,ioos:station:SCCF:13:1,2008-11-07T15:00:00Z,26.5255,-82.0032,2.45,5.89,1111122 
SCCF RECON,ioos:station:SCCF:13:1,2008-11-07T16:00:00Z,26.5255,-82.0032,2.37,6.19,1111122 
SCCF RECON,ioos:station:SCCF:13:1,2008-11-07T17:00:00Z,26.5255,-82.0032,2.29,6.5,1111122 
SCCF RECON,ioos:station:SCCF:13:1,2008-11-07T18:00:00Z,26.5255,-82.0032,2.225,7.68,1111122 
SCCF RECON,ioos:station:SCCF:13:1,2008-11-07T19:00:00Z,26.5255,-82.0032,2.17,7.9,1111122 
SCCF RECON,ioos:station:SCCF:13:1,2008-11-07T20:00:00Z,26.5255,-82.0032,2.14,8.4,1111122 
SCCF RECON,ioos:station:SCCF:13:1,2008-11-07T21:00:00Z,26.5255,-82.0032,2.189,8.72,1111122 
SCCF RECON,ioos:station:SCCF:13:1,2008-11-07T22:00:00Z,26.5255,-82.0032,2.278,8.49,1111122 
SCCF RECON,ioos:station:SCCF:13:1,2008-11-07T23:00:00Z,26.5255,-82.0032,2.328,7.13,1111122 
SCCF RECON,ioos:station:SCCF:13:1,2008-11-08T00:00:00Z,26.5255,-82.0032,2.39,6.84,1111122 
SCCF RECON,ioos:station:SCCF:13:1,2008-11-08T01:00:00Z,26.5255,-82.0032,2.47,6.56,1111122 
SCCF RECON,ioos:station:SCCF:13:1,2008-11-08T02:00:00Z,26.5255,-82.0032,2.514,6.56,1111122 
SCCF RECON,ioos:station:SCCF:13:1,2008-11-08T03:00:00Z,26.5255,-82.0032,2.54,6.48,1111122 
SCCF RECON,ioos:station:SCCF:13:1,2008-11-08T04:00:00Z,26.5255,-82.0032,2.5,6.4,1111122 
SCCF RECON,ioos:station:SCCF:13:1,2008-11-08T05:00:00Z,26.5255,-82.0032,2.435,6.26,1111122 
SCCF RECON,ioos:station:SCCF:13:1,2008-11-08T06:00:00Z,26.5255,-82.0032,2.35,6.25,1111122 
SCCF RECON,ioos:station:SCCF:13:1,2008-11-08T07:00:00Z,26.5255,-82.0032,2.28,6.33,1111122 
SCCF RECON,ioos:station:SCCF:13:1,2008-11-08T08:00:00Z,26.5255,-82.0032,2.24,7.02,1111122 
SCCF RECON,ioos:station:SCCF:13:1,2008-11-08T09:00:00Z,26.5255,-82.0032,2.22,7.32,1111122 
SCCF RECON,ioos:station:SCCF:13:1,2008-11-08T10:00:00Z,26.5255,-82.0032,2.27,7.46,1111122 
SCCF RECON,ioos:station:SCCF:13:1,2008-11-08T11:00:00Z,26.5255,-82.0032,2.37,7.12,1111122 
SCCF RECON,ioos:station:SCCF:13:1,2008-11-08T12:00:00Z,26.5255,-82.0032,2.431,5.92,1111122 
SCCF RECON,ioos:station:SCCF:13:1,2008-11-08T13:00:00Z,26.5255,-82.0032,2.47,5.94,1111122 
SCCF RECON,ioos:station:SCCF:13:1,2008-11-08T14:00:00Z,26.5255,-82.0032,2.5,6.01,1111122 
SCCF RECON,ioos:station:SCCF:13:1,2008-11-08T15:00:00Z,26.5255,-82.0032,2.479,6.01,1111122 
SCCF RECON,ioos:station:SCCF:13:1,2008-11-08T16:00:00Z,26.5255,-82.0032,2.43,5.9,1111122 
SCCF RECON,ioos:station:SCCF:13:1,2008-11-08T17:00:00Z,26.5255,-82.0032,2.361,5.98,1111122 
SCCF RECON,ioos:station:SCCF:13:1,2008-11-08T18:00:00Z,26.5255,-82.0032,2.27,6.39,1111122 
SCCF RECON,ioos:station:SCCF:13:1,2008-11-08T19:00:00Z,26.5255,-82.0032,2.212,6.94,1111122 
SCCF RECON,ioos:station:SCCF:13:1,2008-11-08T20:00:00Z,26.5255,-82.0032,2.178,7.34,1111122 
SCCF RECON,ioos:station:SCCF:13:1,2008-11-08T21:00:00Z,26.5255,-82.0032,2.139,7.57,1111122 
SCCF RECON,ioos:station:SCCF:13:1,2008-11-08T22:00:00Z,26.5255,-82.0032,2.16,7.77,1111122 
SCCF RECON,ioos:station:SCCF:13:1,2008-11-08T23:00:00Z,26.5255,-82.0032,2.26,7.58,1111122 
SCCF RECON,ioos:station:SCCF:13:1,2008-11-09T00:00:00Z,26.5255,-82.0032,2.35,6.76,1111122 
SCCF RECON,ioos:station:SCCF:13:1,2008-11-09T01:00:00Z,26.5255,-82.0032,2.44,6.4,1111122 
SCCF RECON,ioos:station:SCCF:13:1,2008-11-09T02:00:00Z,26.5255,-82.0032,2.51,6.3,1111122 
SCCF RECON,ioos:station:SCCF:13:1,2008-11-09T03:00:00Z,26.5255,-82.0032,2.549,6.16,1111122 
SCCF RECON,ioos:station:SCCF:13:1,2008-11-09T04:00:00Z,26.5255,-82.0032,2.54,5.93,1111122 
SCCF RECON,ioos:station:SCCF:13:1,2008-11-09T05:00:00Z,26.5255,-82.0032,2.45,5.89,1111122 
SCCF RECON,ioos:station:SCCF:13:1,2008-11-09T06:00:00Z,26.5255,-82.0032,2.369,5.95,1111122 
SCCF RECON,ioos:station:SCCF:13:1,2008-11-09T07:00:00Z,26.5255,-82.0032,2.28,5.79,1111122 
SCCF RECON,ioos:station:SCCF:13:1,2008-11-09T08:00:00Z,26.5255,-82.0032,2.23,6.22,1111122 
SCCF RECON,ioos:station:SCCF:13:1,2008-11-09T09:00:00Z,26.5255,-82.0032,2.18,6.39,1111122 
SCCF RECON,ioos:station:SCCF:13:1,2008-11-09T10:00:00Z,26.5255,-82.0032,2.159,6.68,1111122 
SCCF RECON,ioos:station:SCCF:13:1,2008-11-09T11:00:00Z,26.5255,-82.0032,2.201,6.9,1111122 
SCCF RECON,ioos:station:SCCF:13:1,2008-11-09T12:00:00Z,26.5255,-82.0032,2.303,6.78,1111122 
SCCF RECON,ioos:station:SCCF:13:1,2008-11-09T13:00:00Z,26.5255,-82.0032,2.38,5.71,1111122 
SCCF RECON,ioos:station:SCCF:13:1,2008-11-09T14:00:00Z,26.5255,-82.0032,2.42,5.94,1111122 
SCCF RECON,ioos:station:SCCF:13:1,2008-11-09T15:00:00Z,26.5255,-82.0032,2.45,5.92,1111122 
SCCF RECON,ioos:station:SCCF:13:1,2008-11-09T16:00:00Z,26.5255,-82.0032,2.458,5.92,1111122 
SCCF RECON,ioos:station:SCCF:13:1,2008-11-09T17:00:00Z,26.5255,-82.0032,2.39,5.81,1111122 
SCCF RECON,ioos:station:SCCF:13:1,2008-11-09T18:00:00Z,26.5255,-82.0032,2.31,5.99,1111122 
SCCF RECON,ioos:station:SCCF:13:1,2008-11-09T19:00:00Z,26.5255,-82.0032,2.221,6.16,1111122 
SCCF RECON,ioos:station:SCCF:13:1,2008-11-09T20:00:00Z,26.5255,-82.0032,2.17,7.03,1111122 
SCCF RECON,ioos:station:SCCF:13:1,2008-11-09T21:00:00Z,26.5255,-82.0032,2.127,6.97,1111122 
SCCF RECON,ioos:station:SCCF:13:1,2008-11-09T22:00:00Z,26.5255,-82.0032,2.141,7.04,1111122 
SCCF RECON,ioos:station:SCCF:13:1,2008-11-09T23:00:00Z,26.5255,-82.0032,2.232,7.11,1111122 
SCCF RECON,ioos:station:SCCF:13:1,2008-11-10T00:00:00Z,26.5255,-82.0032,2.31,6.65,1111122 
SCCF RECON,ioos:station:SCCF:13:1,2008-11-10T01:00:00Z,26.5255,-82.0032,2.38,6.31,1111122 
SCCF RECON,ioos:station:SCCF:13:1,2008-11-10T02:00:00Z,26.5255,-82.0032,2.431,6.13,1111122 
SCCF RECON,ioos:station:SCCF:13:1,2008-11-10T03:00:00Z,26.5255,-82.0032,2.489,6.05,1111122 
SCCF RECON,ioos:station:SCCF:13:1,2008-11-10T04:00:00Z,26.5255,-82.0032,2.5,6.06,1111122 
SCCF RECON,ioos:station:SCCF:13:1,2008-11-10T05:00:00Z,26.5255,-82.0032,2.45,5.96,1111122 
SCCF RECON,ioos:station:SCCF:13:1,2008-11-10T06:00:00Z,26.5255,-82.0032,2.35,5.89,1111122 
SCCF RECON,ioos:station:SCCF:13:1,2008-11-10T07:00:00Z,26.5255,-82.0032,2.24,5.83,1111122 
SCCF RECON,ioos:station:SCCF:13:1,2008-11-10T08:00:00Z,26.5255,-82.0032,2.145,6.17,1111122 
SCCF RECON,ioos:station:SCCF:13:1,2008-11-10T09:00:00Z,26.5255,-82.0032,2.06,6.24,1111122 
SCCF RECON,ioos:station:SCCF:13:1,2008-11-10T10:00:00Z,26.5255,-82.0032,2.002,6.33,1111122 
SCCF RECON,ioos:station:SCCF:13:1,2008-11-10T11:00:00Z,26.5255,-82.0032,1.98,6.55,1111122 
SCCF RECON,ioos:station:SCCF:13:1,2008-11-10T12:00:00Z,26.5255,-82.0032,2.089,6.64,1111122 
SCCF RECON,ioos:station:SCCF:13:1,2008-11-10T13:00:00Z,26.5255,-82.0032,2.208,6.68,1111122 
SCCF RECON,ioos:station:SCCF:13:1,2008-11-10T14:00:00Z,26.5255,-82.0032,2.302,6.16,1111122 
SCCF RECON,ioos:station:SCCF:13:1,2008-11-10T15:00:00Z,26.5255,-82.0032,2.38,6.06,1111122 
SCCF RECON,ioos:station:SCCF:13:1,2008-11-10T16:00:00Z,26.5255,-82.0032,2.43,5.94,1111122 
SCCF RECON,ioos:station:SCCF:13:1,2008-11-10T17:00:00Z,26.5255,-82.0032,2.424,5.98,1111122 
SCCF RECON,ioos:station:SCCF:13:1,2008-11-10T18:00:00Z,26.5255,-82.0032,2.358,6.11,1111122 
SCCF RECON,ioos:station:SCCF:13:1,2008-11-10T19:00:00Z,26.5255,-82.0032,2.29,5.87,1111122 
SCCF RECON,ioos:station:SCCF:13:1,2008-11-10T20:00:00Z,26.5255,-82.0032,2.24,6.03,1111122 
SCCF RECON,ioos:station:SCCF:13:1,2008-11-10T21:00:00Z,26.5255,-82.0032,2.2,6.07,1111122 
SCCF RECON,ioos:station:SCCF:13:1,2008-11-10T22:00:00Z,26.5255,-82.0032,2.19,6.23,1111122 
SCCF RECON,ioos:station:SCCF:13:1,2008-11-10T23:00:00Z,26.5255,-82.0032,2.252,6.32,1111122 
SCCF RECON,ioos:station:SCCF:13:1,2008-11-11T00:00:00Z,26.5255,-82.0032,2.36,5.83,1111122 
SCCF RECON,ioos:station:SCCF:13:1,2008-11-11T01:00:00Z,26.5255,-82.0032,2.46,6.12,1111122 
SCCF RECON,ioos:station:SCCF:13:1,2008-11-11T02:00:00Z,26.5255,-82.0032,2.53,6.07,1111122 
SCCF RECON,ioos:station:SCCF:13:1,2008-11-11T03:00:00Z,26.5255,-82.0032,2.6,5.98,1111122 
SCCF RECON,ioos:station:SCCF:13:1,2008-11-11T04:00:00Z,26.5255,-82.0032,2.62,6.27,1111122 
SCCF RECON,ioos:station:SCCF:13:1,2008-11-11T05:00:00Z,26.5255,-82.0032,2.56,6.2,1111122 
SCCF RECON,ioos:station:SCCF:13:1,2008-11-11T06:00:00Z,26.5255,-82.0032,2.44,6.12,1111122 
SCCF RECON,ioos:station:SCCF:13:1,2008-11-11T07:00:00Z,26.5255,-82.0032,2.32,6.02,1111122 
SCCF RECON,ioos:station:SCCF:13:1,2008-11-11T08:00:00Z,26.5255,-82.0032,2.217,6.31,1111122 
SCCF RECON,ioos:station:SCCF:13:1,2008-11-11T09:00:00Z,26.5255,-82.0032,2.12,6.24,1111122 
SCCF RECON,ioos:station:SCCF:13:1,2008-11-11T10:00:00Z,26.5255,-82.0032,2.024,6.36,1111122 
SCCF RECON,ioos:station:SCCF:13:1,2008-11-11T11:00:00Z,26.5255,-82.0032,1.979,6.32,1111122 
SCCF RECON,ioos:station:SCCF:13:1,2008-11-11T12:00:00Z,26.5255,-82.0032,2.04,6.34,1111122 
SCCF RECON,ioos:station:SCCF:13:1,2008-11-11T13:00:00Z,26.5255,-82.0032,2.188,6.44,1111122 
SCCF RECON,ioos:station:SCCF:13:1,2008-11-11T14:00:00Z,26.5255,-82.0032,2.3,6.12,1111122 
SCCF RECON,ioos:station:SCCF:13:1,2008-11-11T15:00:00Z,26.5255,-82.0032,2.361,6.05,1111122 
SCCF RECON,ioos:station:SCCF:13:1,2008-11-11T16:00:00Z,26.5255,-82.0032,2.427,6.04,1111122 
SCCF RECON,ioos:station:SCCF:13:1,2008-11-11T17:00:00Z,26.5255,-82.0032,2.466,6.06,1111122 
SCCF RECON,ioos:station:SCCF:13:1,2008-11-11T18:00:00Z,26.5255,-82.0032,2.456,6.18,1111122 
SCCF RECON,ioos:station:SCCF:13:1,2008-11-11T19:00:00Z,26.5255,-82.0032,2.415,6.23,1111122 
SCCF RECON,ioos:station:SCCF:13:1,2008-11-11T20:00:00Z,26.5255,-82.0032,2.37,6.28,1111122 
SCCF RECON,ioos:station:SCCF:13:1,2008-11-11T21:00:00Z,26.5255,-82.0032,2.33,6.28,1111122 